Ypsilanti, MI

3:25 AM EDT on May 28, 2017 (GMT -0400)
Willow Run

Weather History for KYIP - May, 2013

Change the Weather History Date:

Saturday, May 25, 2013

  Actual Average Record
Temperature  
Mean Temperature 52 °F -  
Max Temperature 69 °F 72 °F 91 °F (2012)
Min Temperature 37 °F 52 °F 34 °F (2002)
Degree Days  
Heating Degree Days 12    
Growing Degree Days 2 (Base 50)    
Moisture  
Dew Point 35 °F    
Average Humidity 54    
Maximum Humidity 86    
Minimum Humidity 30    
Precipitation  
Precipitation 0.00 in - - ()
Sea Level Pressure  
Sea Level Pressure 30.34 in    
Wind  
Wind Speed 4 mph (NNE)    
Max Wind Speed 10 mph    
Max Gust Speed -    
Visibility 10 miles    
Events      
Averages and records for this station are not official NWS values.
T = Trace of Precipitation, MM = Missing Value Source: NWS Daily Summary

Daily Weather History Graph

Daily Weather History Graph

Search for Another Location

Airport or City:

Trip Planner

Search our weather history database for the weather conditions in past years. The results will help you decide how hot, cold, wet, or windy it might be!

Date:

Astronomy

May. 25, 2013 Rise Set
Actual Time 6:04 AM EDT 8:58 PM EDT
Civil Twilight 5:31 AM EDT 9:31 PM EDT
Nautical Twilight 4:49 AM EDT 10:13 PM EDT
Astronomical Twilight 4:00 AM EDT 11:03 PM EDT
Moon 9:45 PM EDT (5/25) 6:30 AM EDT (5/25)
Length of Visible Light 16h 00m
Length of Day
14h 54m
Full, 100% of the Moon is Illuminated
May 25
Full
May 31
Last Quarter
Jun 8
New
Jun 16
First Quarter
Jun 23
Full

Hourly Weather History & Observations

Time (EDT) Temp. Windchill Dew Point Humidity Pressure Visibility Wind Dir Wind Speed Gust Speed Precip Events Conditions
12:53 AM 41.0 °F 37.1 °F 35.1 °F 79% 30.35 in 10.0 mi NE 5.8 mph - N/A   Clear
1:53 AM 41.0 °F 39.0 °F 36.0 °F 82% 30.35 in 10.0 mi NE 3.5 mph - N/A   Clear
2:53 AM 41.0 °F - 35.1 °F 79% 30.35 in 10.0 mi Calm Calm - N/A   Clear
3:53 AM 39.0 °F - 34.0 °F 82% 30.36 in 10.0 mi Calm Calm - N/A   Clear
4:53 AM 39.0 °F - 33.1 °F 79% 30.35 in 10.0 mi Calm Calm - N/A   Clear
5:53 AM 37.9 °F - 33.1 °F 83% 30.35 in 5.0 mi Calm Calm - N/A   Haze
6:53 AM 37.9 °F - 34.0 °F 86% 30.35 in 9.0 mi Calm Calm - N/A   Clear
7:53 AM 46.0 °F - 39.0 °F 76% 30.37 in 10.0 mi Calm Calm - N/A   Clear
8:53 AM 50.0 °F - 36.0 °F 59% 30.40 in 10.0 mi Calm Calm - N/A   Overcast
9:53 AM 55.0 °F - 33.1 °F 43% 30.41 in 10.0 mi Variable 3.5 mph - N/A   Clear
10:53 AM 57.9 °F - 32.0 °F 37% 30.39 in 10.0 mi Variable 5.8 mph - N/A   Clear
11:53 AM 62.1 °F - 33.1 °F 34% 30.38 in 10.0 mi North 9.2 mph - N/A   Clear
12:53 PM 64.0 °F - 34.0 °F 33% 30.38 in 10.0 mi Variable 5.8 mph - N/A   Clear
1:53 PM 64.9 °F - 34.0 °F 32% 30.36 in 10.0 mi Variable 4.6 mph - N/A   Clear
2:53 PM 66.0 °F - 34.0 °F 30% 30.34 in 10.0 mi WSW 4.6 mph - N/A   Clear
3:53 PM 68.0 °F - 37.0 °F 32% 30.32 in 10.0 mi North 6.9 mph - N/A   Clear
4:53 PM 66.9 °F - 34.0 °F 30% 30.31 in 10.0 mi North 10.4 mph - N/A   Clear
5:53 PM 66.9 °F - 34.0 °F 30% 30.29 in 10.0 mi North 6.9 mph - N/A   Clear
6:53 PM 66.9 °F - 36.0 °F 32% 30.29 in 10.0 mi NW 6.9 mph - N/A   Clear
7:53 PM 64.0 °F - 36.0 °F 35% 30.29 in 10.0 mi NNE 9.2 mph - N/A   Partly Cloudy
8:53 PM 57.9 °F - 37.0 °F 46% 30.29 in 10.0 mi ENE 8.1 mph - N/A   Clear
9:53 PM 53.1 °F - 37.9 °F 57% 30.30 in 10.0 mi ESE 5.8 mph - N/A   Clear
10:53 PM 53.1 °F - 37.9 °F 57% 30.31 in 10.0 mi Calm Calm - N/A   Clear
11:53 PM 48.9 °F - 37.9 °F 66% 30.33 in 10.0 mi NE 3.5 mph - N/A   Clear